Fryeburg, ME

5:44 AM EDT on June 28, 2017 (GMT -0400)
Eastern Slopes Regional

Weather History for KIZG - April, 2013

Change the Weather History Date:

Saturday, April 27, 2013

  Actual Average Record
Temperature  
Mean Temperature 47 °F -  
Max Temperature 66 °F 60 °F 78 °F (2011)
Min Temperature 30 °F 31 °F 23 °F (2001)
Degree Days  
Heating Degree Days 18    
Moisture  
Dew Point 31 °F    
Average Humidity 70    
Maximum Humidity 100    
Minimum Humidity 25    
Precipitation  
Precipitation 0.00 in - - ()
Sea Level Pressure  
Sea Level Pressure 30.38 in    
Wind  
Wind Speed 1 mph (SE)    
Max Wind Speed 9 mph    
Max Gust Speed -    
Visibility 7 miles    
Events Fog    
Averages and records for this station are not official NWS values.
T = Trace of Precipitation, MM = Missing Value Source: NWS Daily Summary

Daily Weather History Graph

Daily Weather History Graph

Search for Another Location

Airport or City:

Trip Planner

Search our weather history database for the weather conditions in past years. The results will help you decide how hot, cold, wet, or windy it might be!

Date:

Astronomy

Apr. 27, 2013 Rise Set
Actual Time 5:41 AM EDT 7:42 PM EDT
Civil Twilight 5:09 AM EDT 8:13 PM EDT
Nautical Twilight 4:31 AM EDT 8:52 PM EDT
Astronomical Twilight 3:49 AM EDT 9:34 PM EDT
Moon 10:12 PM EDT (4/27) 6:53 AM EDT (4/27)
Length of Visible Light 15h 04m
Length of Day
14h 01m
Waning Gibbous, 95% of the Moon is Illuminated
Apr 27
Waning Gibbous
May 2
Last Quarter
May 9
New
May 18
First Quarter
May 25
Full

Hourly Weather History & Observations

Time (EDT) Temp. Dew Point Humidity Pressure Visibility Wind Dir Wind Speed Gust Speed Precip Events Conditions
12:54 AM 39.0 °F 33.1 °F 79% 30.43 in 10.0 mi Calm Calm - N/A   Overcast
1:54 AM 36.0 °F 33.1 °F 89% 30.43 in 10.0 mi Calm Calm - N/A   Overcast
2:54 AM 35.1 °F 33.1 °F 92% 30.42 in 10.0 mi Calm Calm - N/A   Mostly Cloudy
3:43 AM 33.8 °F 32.0 °F 93% 30.40 in 2.5 mi Calm Calm - N/A   Scattered Clouds
3:50 AM 32.0 °F 30.2 °F 93% 30.40 in 6.0 mi Calm Calm - N/A   Mostly Cloudy
3:54 AM 32.0 °F 30.9 °F 96% 30.42 in 5.0 mi Calm Calm - N/A   Mostly Cloudy
4:54 AM 33.1 °F 32.0 °F 96% 30.42 in 10.0 mi Calm Calm - N/A   Mostly Cloudy
5:40 AM 30.2 °F 30.2 °F 100% 30.40 in 1.0 mi Calm Calm - N/A   Clear
5:44 AM 30.2 °F 30.2 °F 100% 30.40 in 0.2 mi Calm Calm - N/A Fog Light Freezing Fog
5:54 AM 30.9 °F 30.0 °F 96% 30.42 in 0.5 mi Calm Calm - N/A Fog Light Freezing Fog
6:01 AM 32.0 °F 30.2 °F 93% 30.41 in 1.5 mi Calm Calm - N/A   Clear
6:09 AM 30.2 °F 30.2 °F 100% 30.41 in 0.8 mi Calm Calm - N/A   Clear
6:26 AM 30.2 °F 30.2 °F 100% 30.41 in 0.2 mi Calm Calm - N/A Fog Light Freezing Fog
6:34 AM 32.0 °F 32.0 °F 100% 30.41 in 0.5 mi Calm Calm - N/A Fog Fog
6:43 AM 33.8 °F 33.8 °F 100% 30.41 in 2.0 mi Calm Calm - N/A   Clear
6:50 AM 35.6 °F 33.8 °F 93% 30.41 in 8.0 mi Calm Calm - N/A   Clear
6:54 AM 35.1 °F 35.1 °F 100% 30.43 in 10.0 mi Calm Calm - N/A   Clear
7:54 AM 44.1 °F 35.1 °F 71% 30.43 in 10.0 mi Calm Calm - N/A   Clear
8:54 AM 52.0 °F 35.1 °F 53% 30.42 in 10.0 mi Calm Calm - N/A   Clear
9:54 AM 57.0 °F 32.0 °F 39% 30.41 in 10.0 mi ESE 3.5 mph - N/A   Clear
10:54 AM 60.1 °F 30.0 °F 32% 30.40 in 10.0 mi Variable 3.5 mph - N/A   Mostly Cloudy
11:54 AM 57.9 °F 28.9 °F 33% 30.39 in 10.0 mi ESE 5.8 mph - N/A   Overcast
12:54 PM 60.1 °F 27.0 °F 28% 30.36 in 10.0 mi ESE 6.9 mph - N/A   Partly Cloudy
1:54 PM 61.0 °F 27.0 °F 27% 30.34 in 10.0 mi Variable 4.6 mph - N/A   Mostly Cloudy
2:54 PM 64.0 °F 27.0 °F 25% 30.32 in 10.0 mi ESE 4.6 mph - N/A   Scattered Clouds
3:54 PM 63.0 °F 27.0 °F 26% 30.29 in 10.0 mi Variable 4.6 mph - N/A   Mostly Cloudy
4:54 PM 61.0 °F 32.0 °F 34% 30.29 in 10.0 mi SSE 5.8 mph - N/A   Mostly Cloudy
5:54 PM 62.1 °F 33.1 °F 34% 30.28 in 10.0 mi ESE 9.2 mph - N/A   Overcast
6:54 PM 57.9 °F 33.1 °F 39% 30.29 in 10.0 mi South 5.8 mph - N/A   Mostly Cloudy
7:54 PM 55.0 °F 30.9 °F 40% 30.30 in 10.0 mi Variable 3.5 mph - N/A   Overcast
8:54 PM 48.0 °F 33.1 °F 56% 30.32 in 10.0 mi Calm Calm - N/A   Clear
9:54 PM 44.1 °F 32.0 °F 63% 30.34 in 10.0 mi Calm Calm - N/A   Clear
10:54 PM 41.0 °F 33.1 °F 73% 30.34 in 10.0 mi Calm Calm - N/A   Mostly Cloudy
11:54 PM 37.0 °F 33.1 °F 86% 30.34 in 10.0 mi Calm Calm - N/A   Clear